Location: Carrières
(48.9495°N, 2.0407°E)
Time: 22:04:59
(UTC+00:00)

Transit 2A - Pass Details

Date: 24 April 2024
Orbit: 594 x 957 km, 66.7° (Epoch: 18 May)

Event Time Altitude Azimuth Distance (km) Brightness Sun altitude
Rises 07:37:08 0° 268° (W) 2,921 8.5 27.3°
Reaches altitude 10° 07:39:59 10° 287° (WNW) 2,065 7.8 27.8°
Maximum altitude 07:43:15 18° 332° (NNW) 1,641 7.5 28.3°
Drops below altitude 10° 07:46:43 10° 16° (NNE) 2,215 8.5 28.8°
Sets 07:49:55 0° 35° (NE) 3,219 9.5 29.4°
